Portoroz, Slovenia

10:01 AM CET on February 23, 2018 (GMT +0100)
Portoroz

Weather History for LJPZ - October, 2012

Change the Weather History Date:

Saturday, October 13, 2012

  Actual Average Record
Temperature  
Mean Temperature 62 °F -  
Max Temperature 68 °F - - ()
Min Temperature 57 °F - - ()
Degree Days  
Heating Degree Days 2    
Growing Degree Days 12 (Base 50)    
Moisture  
Dew Point 57 °F    
Average Humidity 86    
Maximum Humidity 100    
Minimum Humidity 60    
Precipitation  
Precipitation 0.00 in - - ()
Sea Level Pressure  
Sea Level Pressure 29.89 in    
Wind  
Wind Speed 3 mph ()    
Max Wind Speed 9 mph    
Max Gust Speed -    
Visibility 6.2 miles    
Events Rain    
T = Trace of Precipitation, MM = Missing Value Source: Averaged Metar Reports

Daily Weather History Graph

Daily Weather History Graph

Search for Another Location

Airport or City:

Trip Planner

Search our weather history database for the weather conditions in past years. The results will help you decide how hot, cold, wet, or windy it might be!

Date:

Astronomy

Oct. 13, 2012 Rise Set
Actual Time 7:19 AM CEST 6:23 PM CEST
Civil Twilight 6:49 AM CEST 6:53 PM CEST
Nautical Twilight 6:15 AM CEST 7:27 PM CEST
Astronomical Twilight 5:41 AM CEST 8:01 PM CEST
Moon 4:44 AM CEST (10/13) 5:01 PM CEST (10/13)
Length of Visible Light 12h 03m
Length of Day
11h 03m
Waning Crescent, 6% of the Moon is Illuminated
Oct 13
Waning Crescent
Oct 15
New
Oct 22
First Quarter
Oct 29
Full
Nov 7
Last Quarter

Hourly Weather History & Observations

Time (CEST) Temp. Dew Point Humidity Pressure Visibility Wind Dir Wind Speed Gust Speed Precip Events Conditions
12:00 AM 60.8 °F 60.8 °F 100% 29.89 in 6.2 mi Variable 3.5 mph - N/A   Unknown
12:30 AM 60.8 °F 59.0 °F 94% 29.89 in 6.2 mi Variable 3.5 mph - N/A   Unknown
1:00 AM 60.8 °F 59.0 °F 94% 29.89 in 6.2 mi Calm Calm - N/A   Mostly Cloudy
1:30 AM 60.8 °F 59.0 °F 94% 29.89 in 6.2 mi East 2.3 mph - N/A   Mostly Cloudy
2:00 AM 59.0 °F 59.0 °F 100% 29.89 in 6.2 mi Variable 1.2 mph - N/A   Overcast
2:30 AM 60.8 °F 59.0 °F 94% 29.89 in 6.2 mi Variable 3.5 mph - N/A   Mostly Cloudy
3:00 AM 60.8 °F 59.0 °F 94% 29.89 in 6.2 mi Variable 2.3 mph - N/A   Overcast
3:30 AM 60.8 °F 59.0 °F 94% 29.89 in 6.2 mi Calm Calm - N/A   Mostly Cloudy
4:00 AM 60.8 °F 59.0 °F 94% 29.89 in 6.2 mi Variable 1.2 mph - N/A Rain Light Rain
5:00 AM 59.0 °F 57.2 °F 94% 29.89 in 6.2 mi ESE 2.3 mph - N/A   Mostly Cloudy
6:00 AM 59.0 °F 57.2 °F 94% 29.89 in - ESE 6.9 mph - N/A   Clear
6:30 AM 59.0 °F 57.2 °F 94% 29.92 in 6.2 mi ESE 6.9 mph - N/A Rain Light Rain
7:00 AM 59.0 °F 57.2 °F 94% 29.92 in 6.2 mi SE 4.6 mph - N/A Rain Light Rain
7:30 AM 57.2 °F 57.2 °F 100% 29.92 in 6.2 mi ESE 3.5 mph - N/A Rain Light Rain
8:00 AM 57.2 °F 57.2 °F 100% 29.92 in 6.2 mi SE 4.6 mph - N/A   Mostly Cloudy
8:30 AM 59.0 °F 57.2 °F 94% 29.92 in 6.2 mi ESE 3.5 mph - N/A   Mostly Cloudy
9:00 AM 59.0 °F 57.2 °F 94% 29.92 in 6.2 mi Variable 2.3 mph - N/A   Mostly Cloudy
9:30 AM 60.8 °F 57.2 °F 88% 29.92 in 6.2 mi ESE 5.8 mph - N/A   Mostly Cloudy
10:00 AM 60.8 °F 59.0 °F 94% 29.92 in 6.2 mi SE 3.5 mph - N/A   Mostly Cloudy
10:30 AM 62.6 °F 59.0 °F 88% 29.95 in 6.2 mi ESE 4.6 mph - N/A Rain Light Rain
11:00 AM 62.6 °F 59.0 °F 88% 29.95 in 6.2 mi Calm Calm - N/A Rain Light Rain
11:30 AM 62.6 °F 59.0 °F 88% 29.95 in 6.2 mi Calm Calm - N/A   Mostly Cloudy
12:00 PM 64.4 °F 59.0 °F 83% 29.95 in 6.2 mi Calm Calm - N/A   Mostly Cloudy
12:30 PM 64.4 °F 59.0 °F 83% 29.92 in 6.2 mi Variable 1.2 mph - N/A   Mostly Cloudy
1:00 PM 66.2 °F 59.0 °F 78% 29.92 in 6.2 mi Calm Calm - N/A   Mostly Cloudy
1:30 PM 66.2 °F 59.0 °F 78% 29.92 in 6.2 mi Calm Calm - N/A   Mostly Cloudy
2:00 PM 66.2 °F 57.2 °F 73% 29.89 in 6.2 mi ENE 4.6 mph - N/A   Mostly Cloudy
2:30 PM 68.0 °F 55.4 °F 64% 29.89 in 6.2 mi East 4.6 mph - N/A   Mostly Cloudy
3:00 PM 68.0 °F 55.4 °F 64% 29.89 in 6.2 mi East 4.6 mph - N/A   Mostly Cloudy
3:30 PM 68.0 °F 55.4 °F 64% 29.86 in 6.2 mi ESE 3.5 mph - N/A   Mostly Cloudy
4:00 PM 68.0 °F 53.6 °F 60% 29.86 in 6.2 mi Variable 2.3 mph - N/A   Overcast
4:30 PM 68.0 °F 55.4 °F 64% 29.86 in 6.2 mi Variable 1.2 mph - N/A   Mostly Cloudy
5:00 PM 66.2 °F 53.6 °F 64% 29.83 in 6.2 mi Variable 1.2 mph - N/A   Mostly Cloudy
6:00 PM 64.4 °F 55.4 °F 73% 29.83 in 6.2 mi Variable 2.3 mph - N/A   Overcast
6:30 PM 64.4 °F 53.6 °F 68% 29.86 in 6.2 mi NW 3.5 mph - N/A   Overcast
7:00 PM 60.8 °F 53.6 °F 77% 29.86 in 6.2 mi North 6.9 mph - N/A Rain Light Rain
7:30 PM 59.0 °F 53.6 °F 82% 29.86 in 6.2 mi Variable 2.3 mph - N/A Rain Light Rain
8:00 PM 57.2 °F 53.6 °F 88% 29.86 in 6.2 mi ENE 9.2 mph - N/A Rain Light Rain
8:30 PM 57.2 °F 53.6 °F 88% 29.86 in 6.2 mi SE 6.9 mph - N/A   Mostly Cloudy
9:00 PM 57.2 °F 53.6 °F 88% 29.86 in 6.2 mi Variable 2.3 mph - N/A Rain Light Rain
9:30 PM 57.2 °F 55.4 °F 94% 29.83 in 6.2 mi ESE 8.1 mph - N/A Rain Light Rain
10:00 PM 57.2 °F 55.4 °F 94% 29.83 in 6.2 mi ESE 5.8 mph - N/A Rain Light Rain
10:30 PM 57.2 °F 55.4 °F 94% 29.83 in 6.2 mi ESE 8.1 mph - N/A Rain Light Rain
11:00 PM 57.2 °F 55.4 °F 94% 29.83 in 6.2 mi Variable 3.5 mph - N/A Rain Light Rain Showers
11:30 PM 57.2 °F 55.4 °F 94% 29.80 in 6.2 mi ESE 2.3 mph - N/A   Mostly Cloudy